This demonstration page uses our WeatherBlox Daily Observations layout. Learn more.

Left ArrowRight Arrow

41.55636, -103.73856

Hourly Observations for December 22, 2021

Temp ( °F °C ) Dew Point ( °F °C ) Humidity (%) Winds ( mph kmh ) Pressure ( in mb ) Visibility ( mi km ) Precip ( " mm )
12:58 am 00:58 Partly Cloudy 33 0.5 -8 -22 17 17 SSW 9 15 29.89 1012 10 16 0.00 0.00
1:58 am 01:58 Clear 29 -1.8 -5 -20.8 22 22 SW 12 19 29.91 1013 10 16 0.00 0.00
2:58 am 02:58 Partly Cloudy 29 -1.4 -5 -20.5 22 22 SW 14 22 29.91 1013 10 16 0.00 0.00
3:58 am 03:58 Mostly Clear 35 1.6 -7 -21.6 16 16 SW 8 13 29.89 1012 10 16 0.00 0.00
4:58 am 04:58 Clear 37 3 -7 -21.7 14 14 SW 8 13 29.90 1013 10 16 0.00 0.00
6:58 am 06:58 Clear 32 -0.1 -3 -19.3 22 22 SW 12 19 29.95 1014 10 16 0.00 0.00
7:58 am 07:58 Sunny 33 0.4 0 -17.8 24 24 SW 9 15 29.96 1014 10 16 0.00 0.00
8:58 am 08:58 Sunny 45 7.1 0 -17.7 15 15 W 12 19 29.92 1013 10 16 0.00 0.00
9:58 am 09:58 Sunny 55 12.5 -1 -18.4 10 10 W 20 31 29.90 1012 10 16 0.00 0.00
11:58 am 11:58 Sunny 59 14.9 -1 -18.4 8 8 W 23 37 29.84 1010 10 16 0.00 0.00
12:58 pm 12:58 Mostly Sunny 58 14.5 -3 -19.4 8 8 WNW 22 35 29.80 1009 10 16 0.00 0.00
1:58 pm 13:58 Partly Cloudy 58 14.7 -1 -18.5 9 9 W 16 26 29.80 1009 10 16 0.00 0.00
2:58 pm 14:58 Mostly Sunny 56 13.6 -1 -18.3 9 9 WNW 8 13 29.81 1009 10 16 0.00 0.00
3:58 pm 15:58 Mostly Cloudy 56 13.4 -5 -20.8 8 8 W 14 22 29.80 1009 10 16 0.00 0.00
4:58 pm 16:58 Mostly Cloudy 54 12.1 -5 -20.4 9 9 WNW 9 15 29.80 1009 10 16 0.00 0.00
5:58 pm 17:58 Cloudy 45 7.4 -6 -20.9 11 11 W 8 13 29.87 1012 10 16 0.00 0.00
6:58 pm 18:58 Mostly Cloudy 43 6.3 -6 -21 12 12 SW 5 7 29.88 1012 10 16 0.00 0.00
7:58 pm 19:58 Mostly Clear 42 5.3 -5 -20.4 14 14 WSW 12 19 29.87 1012 10 16 0.00 0.00
8:58 pm 20:58 Clear 42 5.7 -2 -19 15 15 WSW 6 9 29.83 1010 10 16 0.00 0.00
9:58 pm 21:58 Clear 41 4.8 0 -18 17 17 W 6 9 29.80 1009 10 16 0.00 0.00
11:58 pm 23:58 Clear 39 4.1 5 -15.1 23 23 W 10 17 29.81 1010 10 16 0.00 0.00

Powered by AerisWeather